Weather History for Tallahassee, FL

Change the Weather History Date:

Thursday, June 13, 2013

  Actual Average Record
Temperature  
Mean Temperature 88 °F 80 °F  
Max Temperature 98 °F 91 °F 102 °F (2011)
Min Temperature 77 °F 69 °F 51 °F (1979)
Degree Days  
Heating Degree Days 0    
Month to date heating degree days 0  
Since 1 June heating degree days 0  
Since 1 July heating degree days 1332  
Cooling Degree Days 23    
Month to date cooling degree days 219  
Year to date cooling degree days 681  
Since 1 June cooling degree days 219  
Growing Degree Days 38 (Base 50)    
Moisture  
Dew Point 72 °F    
Average Humidity 65    
Maximum Humidity 91    
Minimum Humidity 38    
Precipitation  
Precipitation 0.00 in 0.26 in 2.67 in (2006)
Month to date precipitation 3.09 3.05  
Year to date precipitation 25.48 24.71  
Sea Level Pressure  
Sea Level Pressure 29.95 in    
Wind  
Wind Speed 7 mph (West)    
Max Wind Speed 18 mph    
Max Gust Speed 24 mph    
Visibility 8 miles    
Events Rain , Thunderstorm    
T = Trace of Precipitation, MM = Missing Value Source: NWS Daily Summary

Daily Weather History Graph

Daily Weather History Graph

Search for Another Location

Airport:

Trip Planner

Search our weather history database for the weather conditions in past years. The results will help you decide how hot, cold, wet, or windy it might be!

Date:

Astronomy

Jun. 13, 2013 Rise Set
Actual Time 6:34 AM EDT 8:40 PM EDT
Civil Twilight 6:07 AM EDT 9:07 PM EDT
Nautical Twilight 5:33 AM EDT 9:41 PM EDT
Astronomical Twilight 4:57 AM EDT 10:17 PM EDT
Moon 10:55 AM EDT (6/13) No Moon Set
Length of Visible Light 15h 00m
Length of Day
14h 05m
Waxing Crescent, 21% of the Moon is Illuminated
Jun 13
Waxing Crescent
Jun 16
First Quarter
Jun 23
Full
Jun 30
Last Quarter
Jul 8
New

Hourly Weather History & Observations

Time (EDT) Temp. Heat Index Dew Point Humidity Pressure Visibility Wind Dir Wind Speed Gust Speed Precip Events Conditions
12:53 AM 81.0 °F 86.7 °F 75.0 °F 82% 30.01 in 10.0 mi WSW 3.5 mph - N/A   Clear
1:53 AM 79.0 °F - 75.0 °F 88% 30.00 in 8.0 mi West 3.5 mph - N/A   Clear
2:45 AM 78.8 °F - 75.2 °F 89% 29.99 in 7.0 mi West 3.5 mph - N/A   Partly Cloudy
2:53 AM 78.1 °F - 75.0 °F 90% 29.99 in 6.0 mi West 3.5 mph - N/A   Scattered Clouds
3:04 AM 78.8 °F - 75.2 °F 89% 29.99 in 6.0 mi WNW 3.5 mph - N/A   Mostly Cloudy
3:34 AM 78.8 °F - 75.2 °F 89% 29.99 in 6.0 mi West 4.6 mph - N/A   Scattered Clouds
3:53 AM 78.1 °F - 75.0 °F 90% 29.98 in 6.0 mi SW 3.5 mph - N/A   Partly Cloudy
4:53 AM 78.1 °F - 75.0 °F 90% 29.98 in 6.0 mi Calm Calm - N/A   Clear
5:38 AM 78.8 °F - 75.2 °F 89% 29.98 in 6.0 mi Calm Calm - N/A   Partly Cloudy
5:53 AM 78.1 °F - 75.0 °F 90% 29.98 in 6.0 mi West 3.5 mph - N/A   Mostly Cloudy
6:09 AM 78.8 °F - 75.2 °F 89% 29.98 in 6.0 mi West 3.5 mph - N/A   Scattered Clouds
6:53 AM 78.1 °F - 75.0 °F 90% 30.00 in 5.0 mi Calm Calm - N/A   Partly Cloudy
7:53 AM 79.0 °F - 75.0 °F 88% 30.00 in 6.0 mi Calm Calm - N/A   Clear
8:53 AM 84.0 °F 91.2 °F 73.9 °F 72% 30.01 in 10.0 mi NW 9.2 mph - N/A   Clear
9:53 AM 87.1 °F 94.5 °F 73.0 °F 63% 30.01 in 10.0 mi WNW 5.8 mph - N/A   Clear
10:53 AM 90.0 °F 97.9 °F 73.0 °F 57% 30.00 in 10.0 mi WNW 6.9 mph - N/A   Clear
11:53 AM 91.9 °F 98.4 °F 71.1 °F 50% 29.99 in 10.0 mi West 6.9 mph - N/A   Scattered Clouds
12:53 PM 96.1 °F 101.6 °F 69.1 °F 41% 29.97 in 10.0 mi West 10.4 mph 16.1 mph N/A   Scattered Clouds
1:53 PM 95.0 °F 99.5 °F 68.0 °F 41% 29.95 in 10.0 mi WSW 6.9 mph - N/A   Mostly Cloudy
2:53 PM 97.0 °F 101.0 °F 66.9 °F 37% 29.92 in 10.0 mi WNW 8.1 mph - N/A   Scattered Clouds
3:53 PM 96.1 °F 99.9 °F 66.9 °F 38% 29.90 in 10.0 mi NNW 10.4 mph 16.1 mph N/A   Scattered Clouds
4:53 PM 97.0 °F 101.0 °F 66.9 °F 37% 29.88 in 10.0 mi NW 6.9 mph - N/A   Mostly Cloudy
5:53 PM 93.9 °F 100.8 °F 71.1 °F 47% 29.86 in 10.0 mi WNW 12.7 mph - N/A   Mostly Cloudy
6:53 PM 91.9 °F 100.7 °F 73.0 °F 54% 29.85 in 10.0 mi West 15.0 mph - N/A   Mostly Cloudy
7:36 PM 91.4 °F 96.8 °F 69.8 °F 49% 29.86 in 10.0 mi WSW 12.7 mph - N/A Thunderstorm Thunderstorm
7:53 PM 91.0 °F 96.6 °F 70.0 °F 50% 29.86 in 10.0 mi West 11.5 mph - N/A Thunderstorm Thunderstorm
8:28 PM 89.6 °F 94.7 °F 69.8 °F 52% 29.87 in 10.0 mi WSW 10.4 mph - N/A   Mostly Cloudy
8:53 PM 87.1 °F 92.0 °F 70.0 °F 57% 29.88 in 10.0 mi WSW 10.4 mph - N/A   Scattered Clouds
9:53 PM 84.9 °F 90.7 °F 72.0 °F 65% 29.88 in 10.0 mi West 11.5 mph 18.4 mph N/A   Partly Cloudy
10:53 PM 82.9 °F 88.8 °F 73.0 °F 72% 29.90 in 10.0 mi SSW 5.8 mph - N/A   Clear
11:53 PM 81.0 °F 85.8 °F 73.0 °F 77% 29.91 in 10.0 mi WSW 4.6 mph - N/A   Clear